Weather reports worldwide

Advertisment
Banjarmasin/Syamsudin Noor, Indonesia (96685): temperature & dewpoint: 04.12.2018 11:00:00 - 10.12.2018 11:00:00 (WITA)Banjarmasin/Syamsudin Noor, Indonesia (96685): wind speed: 04.12.2018 11:00:00 - 10.12.2018 11:00:00 (WITA)Banjarmasin/Syamsudin Noor, Indonesia (96685): wind direction: 04.12.2018 11:00:00 - 10.12.2018 11:00:00 (WITA)Banjarmasin/Syamsudin Noor, Indonesia (96685): reduced air pressure: 04.12.2018 11:00:00 - 10.12.2018 11:00:00 (WITA)Banjarmasin/Syamsudin Noor, Indonesia (96685): visibility: 04.12.2018 11:00:00 - 10.12.2018 11:00:00 (WITA)
Date & Time tt [°C] td [°C] ff [km/h] ff [kn] dd ppp [hPa] vv [km]
10.12.2018 11:00:00 - - - - - - -
10.12.2018 10:00:00 - - - - - - -
10.12.2018 09:00:00 - - - - - - -
10.12.2018 08:00:00 26,8 25,2 4 2 N 1009,3 8
10.12.2018 07:00:00 - - - - - - -
10.12.2018 06:00:00 - - - - - - -
10.12.2018 05:00:00 25,4 24,6 0 0 N 1007,6 9
10.12.2018 04:00:00 - - - - - - -
10.12.2018 03:00:00 - - - - - - -
10.12.2018 02:00:00 26,0 24,9 0 0 N 1007,9 9
10.12.2018 01:00:00 - - - - - - -
10.12.2018 00:00:00 - - - - - - -
09.12.2018 23:00:00 27,0 24,8 4 2 SE 1009,6 10
09.12.2018 22:00:00 - - - - - - -
09.12.2018 21:00:00 - - - - - - -
09.12.2018 20:00:00 28,2 25,8 5 3 SW 1008,2 10
09.12.2018 19:00:00 - - - - - - -
09.12.2018 18:00:00 - - - - - - -
09.12.2018 17:00:00 31,2 24,4 8 4 SSE 1006,3 10
09.12.2018 16:00:00 - - - - - - -
09.12.2018 15:00:00 - - - - - - -
09.12.2018 14:00:00 31,0 24,5 0 0 N 1008,1 10
09.12.2018 13:00:00 - - - - - - -
09.12.2018 12:00:00 - - - - - - -
09.12.2018 11:00:00 27,0 24,3 11 6 NE 1011,2 10
09.12.2018 10:00:00 - - - - - - -
09.12.2018 09:00:00 24,0 25,0 13 7 NE - 5
09.12.2018 08:00:00 24,2 22,5 11 6 ENE 1011,8 3,0
09.12.2018 07:00:00 - - - - - - -
09.12.2018 06:00:00 - - - - - - -
09.12.2018 05:00:00 23,3 23,2 8 4 NNE 1010,0 9
09.12.2018 04:00:00 - - - - - - -
09.12.2018 03:00:00 - - - - - - -
09.12.2018 02:00:00 23,4 23,1 4 2 NE 1009,6 10
09.12.2018 01:00:00 - - - - - - -
09.12.2018 00:00:00 - - - - - - -
08.12.2018 23:00:00 23,6 23,3 11 6 ENE 1010,6 9
08.12.2018 22:00:00 - - - - - - -
08.12.2018 21:00:00 - - - - - - -
08.12.2018 20:00:00 23,5 23,1 8 4 E 1009,4 7
08.12.2018 19:00:00 - - - - - - -
08.12.2018 18:00:00 24,0 23,0 11 6 E - 4,8
08.12.2018 17:00:00 24,2 23,4 4 2 E 1008,6 2,8
08.12.2018 16:00:00 24,0 22,0 28 15 ENE - 4,0
08.12.2018 15:00:00 30,0 26,0 21 11 SW - 10
08.12.2018 14:00:00 30,0 25,4 11 6 S 1007,2 10
08.12.2018 13:00:00 32,0 25,0 5 3 WSW - 10
08.12.2018 12:00:00 30,0 24,0 0 0 N - 10
08.12.2018 11:00:00 29,4 25,4 8 4 NNE 1010,0 10
08.12.2018 10:00:00 28,0 26,0 9 5 NNE - 9
08.12.2018 09:00:00 26,0 25,0 5 3 N - 5
08.12.2018 08:00:00 25,8 25,0 9 5 NE 1009,6 9
08.12.2018 07:00:00 25,0 25,0 5 3 NNE - 1,0
08.12.2018 06:00:00 25,0 25,0 5 3 N - 0,1
08.12.2018 05:00:00 24,8 24,5 5 3 ENE 1007,4 7
08.12.2018 04:00:00 - - - - - - -
08.12.2018 03:00:00 - - - - - - -
08.12.2018 02:00:00 25,4 25,1 8 4 ENE 1007,8 7
08.12.2018 01:00:00 25,0 25,0 5 3 NNE - 4,2
08.12.2018 00:00:00 25,0 25,0 4 2 - - 5
07.12.2018 23:00:00 26,0 25,2 4 2 N 1009,0 8
07.12.2018 22:00:00 26,0 25,0 4 2 E - 9
07.12.2018 21:00:00 26,0 25,0 4 2 SE - 9
07.12.2018 20:00:00 26,6 25,2 4 2 SSE 1007,5 9
07.12.2018 19:00:00 - - - - - - -
07.12.2018 18:00:00 - - - - - - -
07.12.2018 17:00:00 27,0 24,8 4 2 S 1005,6 10
07.12.2018 16:00:00 27,0 24,0 4 2 SSE - 10
07.12.2018 15:00:00 27,0 24,0 5 3 S - 10
07.12.2018 14:00:00 29,4 24,5 9 5 ENE 1006,6 9
07.12.2018 13:00:00 - - - - - - -
07.12.2018 12:00:00 - - - - - - -
07.12.2018 11:00:00 29,2 25,4 4 2 N 1008,6 10
07.12.2018 10:00:00 28,0 25,0 4 2 E - 10
07.12.2018 09:00:00 - - - - - - -
07.12.2018 08:00:00 25,2 24,4 11 6 ENE 1009,1 8
07.12.2018 07:00:00 - - - - - - -
07.12.2018 06:00:00 24,0 24,0 4 2 - - 5
07.12.2018 05:00:00 24,3 23,9 4 2 NE 1007,1 9
07.12.2018 04:00:00 - - - - - - -
07.12.2018 03:00:00 - - - - - - -
07.12.2018 02:00:00 24,6 24,0 0 0 N 1007,6 9
07.12.2018 01:00:00 - - - - - - -
07.12.2018 00:00:00 - - - - - - -
06.12.2018 23:00:00 25,4 24,9 5 3 E 1008,3 10
06.12.2018 22:00:00 25,0 24,0 4 2 NE - 9
06.12.2018 21:00:00 25,0 25,0 8 4 ENE - 7
06.12.2018 20:00:00 26,4 25,9 8 4 ENE 1007,0 7
06.12.2018 19:00:00 26,0 25,0 5 3 N - 9
06.12.2018 18:00:00 26,0 25,0 5 3 SE - 9
06.12.2018 17:00:00 26,0 25,3 13 7 SSW 1005,3 4,5
06.12.2018 16:00:00 26,0 25,0 11 6 SSW - 4,0
06.12.2018 15:00:00 30,0 25,0 9 5 WSW - 10
06.12.2018 14:00:00 30,9 25,7 0 0 N 1005,7 8
06.12.2018 13:00:00 32,0 24,0 5 3 NNW - 8
06.12.2018 12:00:00 - - - - - - -
06.12.2018 11:00:00 30,6 25,5 5 3 NNE 1008,5 10
06.12.2018 10:00:00 - - - - - - -
06.12.2018 09:00:00 - - - - - - -
06.12.2018 08:00:00 25,1 24,1 9 5 NNE 1009,0 5
06.12.2018 07:00:00 24,0 23,0 5 3 ENE - 6
06.12.2018 06:00:00 23,0 23,0 5 3 ENE - 2,1
06.12.2018 05:00:00 23,6 23,3 4 2 E 1007,0 6
06.12.2018 04:00:00 - - - - - - -
06.12.2018 03:00:00 - - - - - - -
06.12.2018 02:00:00 24,0 23,4 0 0 N 1007,9 7
06.12.2018 01:00:00 - - - - - - -
06.12.2018 00:00:00 - - - - - - -
05.12.2018 23:00:00 24,0 23,4 5 3 NNE 1009,7 7
05.12.2018 22:00:00 24,0 24,0 4 2 SE - 10
05.12.2018 21:00:00 24,0 24,0 5 3 ENE - 10
05.12.2018 20:00:00 24,8 24,0 5 3 NE 1008,5 6
05.12.2018 19:00:00 - - - - - - -
05.12.2018 18:00:00 - - - - - - -
05.12.2018 17:00:00 25,0 24,0 8 4 S 1006,0 7
05.12.2018 16:00:00 24,0 24,0 22 12 E - 1,5
05.12.2018 15:00:00 - - - - - - -
05.12.2018 14:00:00 32,4 25,2 8 4 W 1005,8 10
05.12.2018 13:00:00 31,0 24,0 9 5 WNW - 10
05.12.2018 12:00:00 30,0 24,0 8 4 NW - 10
05.12.2018 11:00:00 29,0 25,2 9 5 NNW 1009,4 10
05.12.2018 10:00:00 28,0 25,0 9 5 W - 10
05.12.2018 09:00:00 27,0 25,0 9 5 WNW - 9
05.12.2018 08:00:00 26,4 25,2 4 2 WNW 1010,0 9
05.12.2018 07:00:00 25,0 24,0 0 0 N - 9
05.12.2018 06:00:00 - - - - - - -
05.12.2018 05:00:00 24,4 23,8 0 0 N 1007,9 8
05.12.2018 04:00:00 - - - - - - -
05.12.2018 03:00:00 - - - - - - -
05.12.2018 02:00:00 24,9 24,2 0 0 N 1007,9 10
05.12.2018 01:00:00 - - - - - - -
05.12.2018 00:00:00 - - - - - - -
04.12.2018 23:00:00 25,3 24,6 0 0 N 1009,2 10
04.12.2018 22:00:00 - - - - - - -
04.12.2018 21:00:00 - - - - - - -
04.12.2018 20:00:00 25,4 24,6 4 2 ESE 1008,4 10
04.12.2018 19:00:00 25,0 24,0 0 0 N - 9
04.12.2018 18:00:00 - - - - - - -
04.12.2018 17:00:00 25,0 24,2 5 3 ESE 1006,9 8
04.12.2018 16:00:00 - - - - - - -
04.12.2018 15:00:00 27,0 25,0 16 9 SSE - 2,0
04.12.2018 14:00:00 32,2 25,2 5 3 NW 1006,9 7
04.12.2018 13:00:00 33,0 24,0 8 4 N - 10
04.12.2018 12:00:00 33,0 25,0 11 6 N - 10
04.12.2018 11:00:00 31,5 25,5 9 5 NNE 1009,9 10

tt = temperature
td = dewpoint
ff = wind speed
dd = wind direction
ppp = reduced air pressure
vv = visibility

Next stations